Regional Weather Roundup
Issued by NWS

Home | Current Version | Previous Version | Text Only | Print | Product List | Glossary Off
Versions: 1 2 3 4 5 6 7 8 9 10 11 12 13 14 15 16 17 18 19 20 21 22 23 24 25 26 27 28 29 30 31 32 33 34 35 36 37 38 39 40 41 42 43 44 45 46 47 48 49 50

000
ASUS43 KFSD 291802
RWRSD

WEATHER ROUNDUP FOR SOUTH DAKOTA
NATIONAL WEATHER SERVICE SIOUX FALLS SD
100 PM CDT SUN MAR 29 2015

NOTE: "FAIR" INDICATES FEW OR NO CLOUDS BELOW 12,000 FEET WITH NO
SIGNIFICANT WEATHER AND/OR OBSTRUCTIONS TO VISIBILITY.


SDZ001>005-009-010-012>017-291900-
NORTHWEST AND NORTH CENTRAL SOUTH DAKOTA

CITY           SKY/WX    TMP DP  RH WIND       PRES   REMARKS
BUFFALO          N/A     54  36  50 W24G33    30.07S
FAITH            N/A     54  23  30 NW22      30.13S
MOBRIDGE       SUNNY     55  30  38 NW17G28   30.06R
$$

SDZ012>016-024>037-041>051-057-063-072>074-291900-
SOUTHWEST AND SOUTH CENTRAL SOUTH DAKOTA

CITY           SKY/WX    TMP DP  RH WIND       PRES   REMARKS
RAPID CTY ARPT SUNNY     58  31  35 N18G24    30.17F
PIERRE         SUNNY     54  26  34 NW25G33   30.11S
CUSTER         SUNNY     51  18  27 N9        30.19F
ELLSWORTH AFB  SUNNY     56  32  40 N14G24    30.16F
PHILIP         SUNNY     57  22  25 NW17G30   30.16F
PINE RIDGE     SUNNY     55  27  34 W7        30.20F
$$

SDZ004>011-016>023-039-040-291900-
NORTHEAST SOUTH DAKOTA

CITY           SKY/WX    TMP DP  RH WIND       PRES   REMARKS
ABERDEEN       SUNNY     56  28  34 NW23G36   30.01R
WATERTOWN      SUNNY     50  31  48 NW29G39   29.95R
SISSETON         N/A     51  35  54 N31G45    29.89R
$$

SDZ017-020-022-023-036>040-048>070-291900-
SOUTHEAST SOUTH DAKOTA

CITY           SKY/WX    TMP DP  RH WIND       PRES   REMARKS
SIOUX FALLS    MOSUNNY   54  32  43 NW29G38   29.95R
HURON          SUNNY     54  28  36 NW29G38   30.03R
MITCHELL       SUNNY     55  31  39 NW30G41   30.05R
YANKTON        MOSUNNY   54  34  47 NW30G37   30.03R
$$

ABBREVIATIONS USED IN REMARKS
   TC - TEMPERATURE IN CELSIUS
  WCI - WIND CHILL INDEX
   HX - HEAT INDEX
  VSB - VISIBILITY



USA.gov is the U.S. government's official web portal to all federal, state and local government web resources and services.